• In Uzbekistan
  • List of Countries
  • For 7 days
  • Water Temperature
  • Satellite Maps
  • Weather Map
  • Weather Widgets
  • user-avatar
    Login

    Hourly Weather Encamp

    Today, 25 September, Monday

    Time Temperature Precipitation Wind Pressure Humidity
    00:00 +10°C° 0 mm 1 mps 626 mmHg 68%
    01:00 +10°C° 0 mm 1 mps 626 mmHg 68%
    02:00 +10°C° 0 mm 1 mps 626 mmHg 68%
    03:00 +10°C° 0 mm 1 mps 626 mmHg 67%
    04:00 +10°C° 0 mm 1 mps 626 mmHg 69%
    05:00 +9°C° 0 mm 1 mps 626 mmHg 70%
    06:00 +9°C° 0 mm 1 mps 626 mmHg 72%
    07:00 +11°C° 0 mm 1 mps 626 mmHg 67%
    08:00 +13°C° 0 mm 1 mps 627 mmHg 62%
    09:00 +15°C° 0 mm 1 mps 628 mmHg 58%
    10:00 +15°C° 0.2 mm 2 mps 629 mmHg 57%
    11:00 +16°C° 0.2 mm 2 mps 629 mmHg 56%
    12:00 +16°C° 0.2 mm 2 mps 629 mmHg 55%
    13:00 +16°C° 0.4 mm 2 mps 628 mmHg 60%
    14:00 +15°C° 0.4 mm 2 mps 628 mmHg 64%
    15:00 +14°C° 0.4 mm 2 mps 628 mmHg 68%
    16:00 +13°C° 0.7 mm 2 mps 627 mmHg 74%
    17:00 +12°C° 0.7 mm 2 mps 627 mmHg 80%
    18:00 +9°C° 0.7 mm 2 mps 627 mmHg 86%
    19:00 +9°C° 0.3 mm 2 mps 627 mmHg 87%
    20:00 +8°C° 0.3 mm 2 mps 627 mmHg 88%
    21:00 +7°C° 0.3 mm 2 mps 627 mmHg 90%
    22:00 +7°C° 0.1 mm 2 mps 627 mmHg 89%
    23:00 +6°C° 0.1 mm 2 mps 626 mmHg 88%

    Tomorrow, 26 September, Tuesday

    Time Temperature Precipitation Wind Pressure Humidity
    00:00 +6°C° 0.1 mm 2 mps 626 mmHg 88%
    01:00 +5°C° 0 mm 2 mps 626 mmHg 87%
    02:00 +5°C° 0 mm 2 mps 626 mmHg 85%
    03:00 +5°C° 0 mm 2 mps 626 mmHg 84%
    04:00 +4°C° 0 mm 2 mps 625 mmHg 84%
    05:00 +4°C° 0 mm 2 mps 625 mmHg 83%
    06:00 +4°C° 0 mm 2 mps 625 mmHg 82%
    07:00 +7°C° 0 mm 1 mps 627 mmHg 74%
    08:00 +9°C° 0 mm 1 mps 628 mmHg 66%
    09:00 +12°C° 0 mm 1 mps 629 mmHg 58%
    10:00 +13°C° 0 mm 1 mps 629 mmHg 53%
    11:00 +15°C° 0 mm 1 mps 630 mmHg 48%
    12:00 +16°C° 0 mm 1 mps 630 mmHg 44%
    13:00 +15°C° 0 mm 1 mps 630 mmHg 47%
    14:00 +15°C° 0 mm 1 mps 629 mmHg 50%
    15:00 +15°C° 0 mm 2 mps 629 mmHg 53%
    16:00 +13°C° 0 mm 1 mps 628 mmHg 63%
    17:00 +11°C° 0 mm 1 mps 628 mmHg 72%
    18:00 +8°C° 0 mm 0 mps 627 mmHg 82%
    19:00 +9°C° 0 mm 1 mps 627 mmHg 84%
    20:00 +8°C° 0 mm 1 mps 627 mmHg 86%
    21:00 +8°C° 0 mm 1 mps 627 mmHg 88%
    22:00 +8°C° 0 mm 1 mps 627 mmHg 89%
    23:00 +8°C° 0 mm 1 mps 627 mmHg 90%

    Day after tomorrow, 27 September, Wednesday

    Time Temperature Precipitation Wind Pressure Humidity
    00:00 +8°C° 0 mm 1 mps 627 mmHg 90%
    01:00 +8°C° 0 mm 1 mps 627 mmHg 90%
    02:00 +8°C° 0 mm 1 mps 627 mmHg 90%
    03:00 +8°C° 0 mm 1 mps 627 mmHg 90%
    04:00 +7°C° 0 mm 1 mps 627 mmHg 90%
    05:00 +7°C° 0 mm 1 mps 627 mmHg 90%
    06:00 +7°C° 0 mm 1 mps 626 mmHg 90%
    07:00 +9°C° 0 mm 1 mps 628 mmHg 81%
    08:00 +12°C° 0 mm 1 mps 629 mmHg 71%
    09:00 +14°C° 0 mm 2 mps 630 mmHg 62%
    10:00 +15°C° 0 mm 2 mps 630 mmHg 58%
    11:00 +16°C° 0 mm 2 mps 630 mmHg 54%
    12:00 +17°C° 0 mm 2 mps 630 mmHg 50%
    13:00 +17°C° 0 mm 3 mps 630 mmHg 51%
    14:00 +17°C° 0 mm 3 mps 630 mmHg 53%
    15:00 +16°C° 0 mm 3 mps 630 mmHg 54%
    16:00 +15°C° 0 mm 2 mps 629 mmHg 62%
    17:00 +13°C° 0 mm 2 mps 629 mmHg 71%
    18:00 +11°C° 0 mm 1 mps 628 mmHg 79%
    19:00 +10°C° 0 mm 1 mps 628 mmHg 82%
    20:00 +10°C° 0 mm 1 mps 628 mmHg 84%
    21:00 +9°C° 0 mm 1 mps 628 mmHg 87%
    22:00 +9°C° 0 mm 1 mps 628 mmHg 86%
    23:00 +9°C° 0 mm 1 mps 628 mmHg 86%

    28 September, Thursday

    Time Temperature Precipitation Wind Pressure Humidity
    00:00 +9°C° 0 mm 1 mps 628 mmHg 85%
    01:00 +8°C° 0 mm 1 mps 628 mmHg 85%
    02:00 +8°C° 0 mm 1 mps 628 mmHg 84%
    03:00 +8°C° 0 mm 1 mps 628 mmHg 83%
    04:00 +8°C° 0 mm 1 mps 628 mmHg 83%
    05:00 +8°C° 0 mm 1 mps 628 mmHg 82%
    06:00 +8°C° 0 mm 1 mps 628 mmHg 82%
    07:00 +10°C° 0 mm 1 mps 629 mmHg 73%
    08:00 +13°C° 0 mm 1 mps 631 mmHg 65%
    09:00 +14°C° 0 mm 0 mps 632 mmHg 56%
    10:00 +16°C° 0 mm 1 mps 632 mmHg 54%
    11:00 +17°C° 0 mm 2 mps 632 mmHg 51%
    12:00 +18°C° 0 mm 2 mps 633 mmHg 48%
    13:00 +18°C° 0 mm 2 mps 632 mmHg 51%
    14:00 +17°C° 0 mm 2 mps 632 mmHg 54%
    15:00 +17°C° 0 mm 2 mps 631 mmHg 57%
    16:00 +15°C° 0 mm 2 mps 631 mmHg 65%
    17:00 +13°C° 0 mm 1 mps 630 mmHg 72%
    18:00 +12°C° 0 mm 1 mps 629 mmHg 80%
    19:00 +11°C° 0 mm 1 mps 629 mmHg 83%
    20:00 +10°C° 0 mm 1 mps 629 mmHg 86%
    21:00 +10°C° 0 mm 1 mps 629 mmHg 88%
    22:00 +9°C° 0 mm 1 mps 629 mmHg 88%
    23:00 +9°C° 0 mm 1 mps 629 mmHg 88%

    29 September, Friday

    Time Temperature Precipitation Wind Pressure Humidity
    00:00 +9°C° 0 mm 1 mps 629 mmHg 87%
    01:00 +9°C° 0 mm 1 mps 628 mmHg 87%
    02:00 +9°C° 0 mm 1 mps 628 mmHg 86%
    03:00 +9°C° 0 mm 1 mps 628 mmHg 86%
    04:00 +9°C° 0 mm 1 mps 628 mmHg 85%
    05:00 +9°C° 0 mm 1 mps 628 mmHg 84%
    06:00 +9°C° 0 mm 1 mps 628 mmHg 84%
    07:00 +11°C° 0 mm 1 mps 629 mmHg 75%
    08:00 +14°C° 0 mm 1 mps 630 mmHg 65%
    09:00 +16°C° 0 mm 1 mps 631 mmHg 56%
    10:00 +18°C° 0.1 mm 1 mps 631 mmHg 55%
    11:00 +19°C° 0.1 mm 1 mps 631 mmHg 53%
    12:00 +18°C° 0.1 mm 2 mps 631 mmHg 51%
    13:00 +18°C° 0.4 mm 2 mps 630 mmHg 55%
    14:00 +18°C° 0.4 mm 1 mps 630 mmHg 58%
    15:00 +18°C° 0.4 mm 1 mps 629 mmHg 62%
    16:00 +15°C° 0.6 mm 1 mps 629 mmHg 68%
    17:00 +14°C° 0.6 mm 1 mps 628 mmHg 74%
    18:00 +12°C° 0.6 mm 1 mps 628 mmHg 80%
    19:00 +12°C° 0.6 mm 1 mps 628 mmHg 82%
    20:00 +12°C° 0.6 mm 1 mps 628 mmHg 84%
    21:00 +11°C° 0.6 mm 1 mps 628 mmHg 86%
    22:00 +11°C° 0.3 mm 1 mps 628 mmHg 86%
    23:00 +10°C° 0.3 mm 1 mps 628 mmHg 87%

    30 September, Saturday

    Time Temperature Precipitation Wind Pressure Humidity
    00:00 +10°C° 0.3 mm 1 mps 628 mmHg 87%
    01:00 +10°C° 0 mm 1 mps 627 mmHg 87%
    02:00 +9°C° 0 mm 1 mps 627 mmHg 87%
    03:00 +9°C° 0 mm 1 mps 627 mmHg 88%
    04:00 +9°C° 0 mm 1 mps 627 mmHg 88%
    05:00 +9°C° 0 mm 1 mps 627 mmHg 88%
    06:00 +9°C° 0 mm 1 mps 627 mmHg 88%
    07:00 +11°C° 0 mm 1 mps 628 mmHg 82%
    08:00 +12°C° 0 mm 1 mps 629 mmHg 76%
    09:00 +14°C° 0 mm 1 mps 629 mmHg 70%
    10:00 +14°C° 0.3 mm 1 mps 629 mmHg 70%
    11:00 +15°C° 0.3 mm 1 mps 629 mmHg 69%
    12:00 +15°C° 0.3 mm 1 mps 629 mmHg 69%
    13:00 +15°C° 1.1 mm 1 mps 628 mmHg 73%
    14:00 +14°C° 1.1 mm 1 mps 628 mmHg 76%
    15:00 +13°C° 1.1 mm 1 mps 627 mmHg 80%
    16:00 +13°C° 1.9 mm 1 mps 627 mmHg 84%
    17:00 +12°C° 1.9 mm 1 mps 627 mmHg 88%
    18:00 +11°C° 1.9 mm 1 mps 627 mmHg 92%
    19:00 +11°C° 1.6 mm 1 mps 627 mmHg 93%
    20:00 +11°C° 1.6 mm 1 mps 627 mmHg 93%
    21:00 +10°C° 1.6 mm 1 mps 627 mmHg 94%
    22:00 +10°C° 0.5 mm 1 mps 627 mmHg 94%
    23:00 +10°C° 0.5 mm 1 mps 626 mmHg 94%
    Show more